This is the latest recevied weather packets stored in our database for station/object W4BOD. If no packets are shown the sender has not sent any weather packets the latest 10 day(s).
| Time | Temp. | Humidity | Pressure | Rain* | Wind** | Luminosity | Snow |
|---|---|---|---|---|---|---|---|
| 1788010521 | 23.89° C | 84% | 1021.1 hPa | 0 mm | - | 147 W/m² | - |
| 1788010216 | 23.89° C | 84% | 1020.9 hPa | 0 mm | - | 145 W/m² | - |
| 1788009915 | 23.89° C | 85% | 1020.8 hPa | 0 mm | - | 136 W/m² | - |
| 1788009614 | 23.33° C | 85% | 1020.6 hPa | 0 mm | - | 113 W/m² | - |
| 1788009309 | 23.33° C | 85% | 1020.7 hPa | 0 mm | - | 110 W/m² | - |
| 1788009003 | 23.33° C | 86% | 1020.4 hPa | 0 mm | - | 86 W/m² | - |
| 1788008699 | 22.78° C | 86% | 1020.3 hPa | 0 mm | - | 66 W/m² | - |
| 1788008397 | 22.78° C | 87% | 1020.4 hPa | 0 mm | - | 63 W/m² | - |
| 1788008095 | 22.78° C | 89% | 1020.3 hPa | 0 mm | - | 62 W/m² | - |
| 1788007794 | 22.78° C | 89% | 1020.3 hPa | 0 mm | - | 58 W/m² | - |
| 1788007488 | 22.22° C | 89% | 1020.2 hPa | 0 mm | - | 56 W/m² | - |
| 1788007188 | 22.22° C | 89% | 1020.1 hPa | 0 mm | - | 54 W/m² | - |
| 1788006882 | 22.22° C | 90% | 1020.3 hPa | 0 mm | - | 53 W/m² | - |
| 1788006576 | 21.67° C | 90% | 1020.3 hPa | 0 mm | - | 49 W/m² | - |
| 1788006271 | 21.67° C | 91% | 1020.3 hPa | 0 mm | - | 47 W/m² | - |
| 1788005969 | 21.67° C | 92% | 1020.1 hPa | 0 mm | - | 44 W/m² | - |
| 1788005665 | 21.11° C | 93% | 1020.1 hPa | 0 mm | - | 42 W/m² | - |
| 1788005359 | 21.11° C | 93% | 1020.2 hPa | 0 mm | - | 39 W/m² | - |
| 1788005058 | 21.11° C | 95% | 1020.1 hPa | 0 mm | - | 38 W/m² | - |
| 1788004756 | 20.56° C | 96% | 1020 hPa | 0 mm | - | 39 W/m² | - |
| 1788004452 | 20.56° C | 96% | 1020.2 hPa | 0 mm | - | 33 W/m² | - |
| 1788004151 | 20.56° C | 95% | 1019.9 hPa | 0 mm | - | 26 W/m² | - |
| 1788003850 | 20.56° C | 95% | 1020.1 hPa | 0 mm | - | 22 W/m² | - |
| 1788003549 | 20.56° C | 95% | 1020 hPa | 0 mm | - | 18 W/m² | - |
| 1788003243 | 20.56° C | 94% | 1020 hPa | 0 mm | - | 14 W/m² | - |
* Rain latest hour (hover to see other rain measurements)
** Current wind speed in m/s (hover to see current wind gust speed)